GFSFLT1_850_thetae_276.txt.gz
Theta_e
345 345 345 348 349 354 353 355 356 355 354 354 357 355 351 353 352 348 350 351 348 340 337 329 330 330 326 325 324 328 336 340 338
344 345 345 348 350 353 354 355 355 355 351 350 352 353 353 354 351 352 350 334 327 335 338 337 338 336 335 328 327 326 337 339 333
347 348 348 353 351 352 354 355 356 355 349 349 351 354 355 354 352 350 330 333 339 341 343 343 342 340 333 331 328 335 336 334 331
346 352 354 353 352 353 354 355 354 356 356 350 353 355 353 351 340 329 336 340 342 343 343 344 343 339 338 336 333 335 336 336 332
345 348 353 352 353 355 355 355 356 357 357 353 354 355 345 336 335 339 341 341 343 343 345 345 339 336 338 336 337 336 338 338 336
343 346 351 354 354 354 355 356 357 358 354 355 356 347 344 342 341 341 340 342 344 344 342 339 337 336 338 337 336 335 338 337 337
347 350 351 353 355 355 355 357 357 356 355 356 356 348 340 343 342 345 345 344 344 342 341 336 335 338 337 336 335 336 339 337 336
342 338 345 354 355 356 358 357 357 356 358 356 351 349 336 342 344 345 341 341 340 340 338 337 337 337 336 336 336 337 336 333 328
343 340 343 353 352 346 357 357 356 357 355 352 351 341 342 344 345 342 340 341 339 337 339 339 339 337 335 332 325 325 325 327 329
342 342 339 349 342 338 357 355 354 352 351 348 343 345 344 344 344 341 339 338 335 341 339 334 326 321 321 324 326 327 328 327 326
344 340 339 349 348 352 356 354 354 349 338 347 346 345 344 344 344 339 337 325 328 335 329 317 319 323 325 326 326 325 323 319 314
352 351 353 356 355 357 356 355 350 339 340 346 345 344 344 344 339 332 330 331 332 324 316 321 324 325 324 323 322 317 311 310 310
347 349 358 357 357 356 357 354 349 340 346 346 343 341 344 340 338 331 332 327 318 315 322 324 323 323 321 319 312 310 311 311 311
358 359 358 357 357 357 354 351 347 346 346 340 337 339 338 334 332 330 320 314 316 322 323 322 321 319 315 310 310 310 310 311 311
355 355 354 353 352 351 350 349 346 345 342 337 337 335 331 332 324 315 314 315 319 320 317 310 311 310 310 308 308 308 308 309 309
353 353 352 351 350 349 346 342 341 338 338 339 335 330 327 317 313 314 317 319 319 314 310 310 310 309 308 309 310 309 309 309 309
352 352 352 350 349 346 343 342 340 341 339 334 328 321 316 316 315 317 318 316 315 314 312 309 308 310 310 312 311 311 310 311 311
349 350 349 347 346 343 342 339 336 335 331 323 319 316 316 319 318 318 317 316 316 315 314 314 312 313 313 313 313 311 311 311 312
347 346 345 341 341 336 335 335 332 327 321 318 317 316 319 320 318 317 316 315 316 315 315 315 315 314 314 313 313 312 312 312 312
344 343 342 338 336 335 333 328 323 319 318 319 318 319 317 317 316 314 315 315 314 315 315 314 314 314 314 313 313 312 312 312 312

GFSFLT1_850_thetae_279.txt.gz
Theta_e
343 341 340 340 345 347 348 350 351 352 356 353 354 356 356 355 352 351 350 349 349 335 328 330 334 335 332 327 329 330 338 333 327
344 343 341 343 345 348 349 351 353 356 354 353 354 357 357 353 352 348 347 348 334 339 341 340 341 339 331 330 329 334 333 333 328
343 343 343 344 347 348 349 352 355 355 354 348 350 355 352 352 350 349 342 329 340 340 341 343 343 338 337 335 334 335 335 335 333
342 342 345 346 347 348 350 353 355 354 354 347 348 351 352 352 351 343 331 340 342 343 343 345 342 337 337 337 336 336 338 337 336
345 346 346 348 348 351 350 354 355 354 353 347 349 351 353 353 349 332 339 341 342 343 344 341 340 336 336 336 336 335 337 336 335
345 342 343 337 352 354 351 354 354 353 355 353 349 353 353 346 332 338 339 340 343 345 343 340 338 336 337 336 335 334 336 336 335
345 343 350 338 350 355 354 354 355 355 357 353 353 353 344 337 339 339 340 342 343 343 339 339 336 336 336 336 335 336 335 334 328
345 339 346 350 353 354 354 354 354 356 356 354 355 351 345 343 341 344 344 342 341 340 339 337 337 336 336 334 330 323 322 322 324
343 343 348 350 351 351 354 355 355 356 352 350 351 346 345 342 344 345 342 340 341 337 334 337 336 332 323 317 319 324 325 325 325
345 347 350 351 351 353 355 355 353 350 344 346 347 344 342 343 343 344 341 340 338 336 336 332 323 319 321 320 321 322 321 315 310
343 343 340 342 345 354 355 354 352 350 345 338 343 341 340 340 337 342 341 339 329 333 329 318 320 323 322 321 319 311 310 310 310
343 344 342 341 349 352 344 349 352 349 341 337 341 343 335 340 343 342 336 328 332 327 319 321 323 322 320 314 310 311 311 311 311
347 342 342 340 339 344 348 352 350 343 341 345 345 340 337 343 339 332 331 331 325 318 320 321 321 320 312 310 310 309 309 309 309
350 350 348 343 345 346 350 350 347 343 343 345 345 341 341 340 337 334 330 321 318 320 321 320 318 311 309 308 309 308 308 308 307
350 354 356 356 354 354 351 348 347 342 345 344 342 340 339 336 333 324 316 316 320 319 314 310 310 309 308 309 309 309 309 309 309
354 356 356 356 353 352 350 348 343 345 343 339 338 336 334 331 320 315 317 318 317 312 310 310 309 309 311 311 310 310 310 310 309
352 353 352 351 350 348 345 344 345 342 337 336 336 334 325 316 314 317 318 316 314 312 310 309 309 310 312 312 311 311 310 310 310
350 350 350 348 347 344 340 342 340 338 338 337 334 322 317 316 315 315 316 315 315 314 313 311 313 313 313 313 312 312 311 311 311
349 348 347 346 344 342 340 340 340 339 337 329 321 318 316 316 316 317 316 315 315 314 314 315 314 313 313 312 312 312 312 312 312
347 347 346 344 342 341 338 337 335 332 325 321 318 317 316 317 317 316 315 315 315 314 315 314 313 314 314 313 312 312 312 312 312

GFSFLT1_850_thetae_285.txt.gz
Theta_e
344 344 344 344 342 340 341 345 344 342 342 341 343 349 349 343 346 350 350 350 347 343 327 332 337 336 334 332 333 333 334 334 334
344 344 343 344 343 341 342 342 346 344 343 342 344 351 349 344 346 351 350 348 346 331 336 338 338 335 336 336 334 335 335 335 334
340 344 344 344 342 341 341 342 345 345 344 343 345 353 350 347 351 351 350 347 335 340 338 342 342 339 336 337 336 336 335 335 334
340 342 344 342 342 341 342 342 346 347 347 345 346 353 352 353 352 351 347 346 337 339 342 341 342 340 337 336 337 336 335 335 335
342 342 343 343 342 340 340 342 345 349 350 348 348 354 351 352 347 349 347 333 340 342 343 343 340 339 336 336 336 335 335 335 334
346 342 343 340 342 342 344 353 352 351 351 349 353 349 348 347 346 348 337 338 341 342 343 343 340 339 337 337 335 334 333 331 323
346 343 344 346 350 352 350 352 354 353 353 351 348 346 346 346 347 344 334 340 341 341 343 340 339 338 337 335 330 321 318 321 323
347 348 347 350 353 355 350 353 356 354 348 346 337 337 342 345 345 336 337 339 340 342 341 340 339 338 333 320 318 320 320 319 312
346 350 349 351 353 354 352 354 356 349 340 341 337 335 335 343 336 339 339 340 341 342 341 340 337 331 319 318 319 315 310 310 311
345 349 348 345 343 355 354 355 351 347 344 337 335 334 338 335 332 340 340 341 343 340 340 337 331 320 318 317 311 310 311 311 311
345 346 345 344 345 355 352 354 353 348 348 344 342 337 336 335 335 340 343 339 341 340 338 331 321 319 317 310 310 310 309 308 308
344 344 343 344 346 348 352 353 349 349 344 343 338 335 335 333 335 343 339 340 339 339 332 324 318 318 310 310 309 308 307 307 306
341 341 341 342 343 348 352 353 351 339 338 344 339 340 336 336 339 343 341 338 340 332 325 320 319 312 309 308 308 308 308 307 307
344 343 341 341 342 344 349 348 346 338 337 337 342 344 342 340 342 343 340 339 332 326 320 319 316 309 309 308 308 309 309 309 309
347 344 342 341 342 346 343 337 337 335 334 341 341 342 344 342 342 339 337 332 326 319 320 317 310 309 309 309 309 310 310 310 311
350 345 342 341 343 346 344 343 341 334 339 340 340 343 341 340 338 335 332 321 317 318 316 311 309 309 310 310 310 310 310 311 311
351 350 345 343 344 345 345 343 341 333 342 342 338 342 341 338 335 330 318 317 316 313 310 309 309 311 311 311 311 311 312 312 312
353 352 350 349 348 347 348 345 339 340 342 343 342 342 338 335 326 318 316 314 313 311 310 309 310 312 312 312 312 312 312 312 312
350 350 349 349 349 349 347 345 344 343 344 343 342 338 335 329 318 317 315 314 313 311 309 312 313 313 313 313 312 312 312 312 313
347 346 346 346 345 344 344 344 344 342 340 339 337 334 326 317 318 316 315 314 314 314 313 314 313 313 313 314 313 312 312 313 313

GFSFLT1_850_thetae_291.txt.gz
Theta_e
343 346 346 348 347 348 351 351 351 352 356 356 355 355 358 359 357 356 355 351 355 347 342 343 343 342 345 345 343 342 339 343 339
342 345 346 348 348 349 351 353 353 353 356 352 353 358 360 360 358 356 354 353 352 346 342 347 344 346 345 344 343 342 338 344 342
341 345 346 347 348 349 350 353 354 354 356 348 350 355 358 360 358 358 356 355 350 341 347 349 348 348 346 344 342 342 340 340 340
340 342 346 346 348 349 349 351 353 355 356 357 355 355 357 360 357 357 357 354 348 346 350 350 349 344 347 345 344 343 341 338 337
341 341 344 345 348 350 350 352 354 355 356 356 355 355 357 359 358 358 356 353 347 348 350 348 348 346 344 346 344 340 334 334 333
342 346 345 346 349 351 352 353 355 356 356 355 355 356 353 356 354 354 355 353 347 348 346 348 348 345 342 337 334 326 330 324 329
342 349 348 348 350 353 355 356 357 356 356 356 357 353 357 354 350 354 353 350 347 349 347 347 343 339 339 336 323 318 324 321 316
343 351 350 349 352 354 359 361 362 360 358 357 352 347 354 351 353 350 351 347 343 342 345 342 341 340 337 326 322 316 313 313 320
346 351 350 351 352 356 364 364 361 362 360 349 348 359 355 349 348 347 346 346 338 340 340 341 339 339 333 319 315 310 310 317 313
347 351 352 355 358 365 362 360 360 360 352 355 354 346 343 344 345 343 340 341 339 341 340 339 339 338 326 316 310 310 311 312 318
346 352 355 360 365 361 359 358 359 357 352 347 342 340 343 346 343 344 341 337 335 338 339 339 339 329 318 311 310 310 308 308 315
346 352 358 362 363 358 358 356 355 351 347 340 339 340 341 344 341 341 339 334 336 339 339 339 334 321 314 310 309 308 308 315 318
350 352 356 361 359 357 357 353 351 352 343 341 342 347 344 345 346 342 335 333 340 338 338 335 325 317 310 309 309 308 308 316 318
351 352 356 355 358 357 358 357 354 355 353 347 344 345 347 345 342 335 338 340 338 338 336 327 321 316 310 309 308 309 309 309 315
356 351 355 356 359 358 358 356 355 356 351 350 346 345 344 344 343 341 338 339 339 337 331 322 316 311 315 318 309 309 309 309 310
353 352 356 358 359 358 359 357 356 354 352 349 346 344 345 345 342 339 341 340 338 333 323 323 321 319 318 318 318 315 310 310 312
356 356 356 357 358 357 357 355 351 350 349 348 346 346 345 344 342 341 340 337 333 329 325 321 319 318 318 318 318 318 318 317 318
356 355 355 356 357 356 357 352 351 349 342 346 347 344 344 343 340 339 336 333 328 326 323 319 318 318 318 318 318 318 317 316 315
351 353 356 358 354 353 352 350 349 344 348 347 345 344 342 342 339 336 331 327 325 322 320 315 316 317 318 318 318 317 317 312 313
354 353 353 355 355 350 348 346 347 344 345 346 344 343 340 337 335 330 327 324 321 318 312 310 311 311 312 314 315 313 312 313 314